Location: ??????
(55.2000°N, 38.3000°E)
Time: 16:44:09
(UTC+00:00)

USA 59 Rocket - Pass Details

Date: 15 November 2025
Orbit: 370 x 1678 km, 63.3° (Epoch: 14 December)

Event Time Altitude Azimuth Distance (km) Brightness Sun altitude
Exits shadow 02:29:53 22° 19° (NNE) 882 1.0 -21.0°
Drops below altitude 10° 02:31:21 10° 41° (NE) 1,394 2.4 -20.8°
Sets 02:33:33 0° 52° (NE) 2,300 3.8 -20.5°
